Flag for U.S.A. Weather past 2 weeks in Akron, Ohio, U.S.A.

Now
61 °F

Clear.


Feels Like: 61 °F
Forecast: 60 / 75 °F
Wind: 3 mph from North

Location: Akron Fulton International Airport

Current Time: Jul 24, 2014 at 12:43:46 AM

Latest Report: Jul 23, 2014 at 11:54 PM


Visibility: 10 mi

Pressure: 30.01 "Hg

Humidity: 83%

Dew point: 56 °F

Location of AkronLocation

Historic Weather in Akron — Graph

°F

Akron temperature yesterday

Maximum temperature yesterday: 78 °F (at 10:54 AM)
Minimum temperature yesterday: 63 °F (at 10:54 PM)
Average temperature yesterday: 71 °F

Past Weeks' High & Low Weather Summary

 TemperatureHumidityPressure
High88 °F (Jul 13, 2:54 PM)96% (Jul 10, 6:54 AM)30.24 "Hg (Jul 10, 6:54 AM)
Low51 °F (Jul 18, 4:54 AM)33% (Jul 18, 1:54 PM)29.72 "Hg (Jul 15, 3:54 AM)
Average71 °F71%30.02 "Hg
* Reported Jul 8 10:54 PM — Jul 23 10:54 PM, Akron, Weather by CustomWeather, © 2014

Note: Actual official high and low records may vary slightly from our data, if they occured in-between our weather recording intervals... More about our weather records

Advertising

Akron weather history for previous 24 hours

 ConditionsComfort  
Time TempWeatherWind HumidityBarometerVisibility
10:54 PM
Jul 23
63 °FPartly cloudy.7 mph81%30.02 "Hg10 mi
9:54 PM65 °FOvercast.8 mph76%30.03 "Hg10 mi
8:54 PM65 °FOvercast.13 mph76%30.01 "Hg10 mi
7:54 PM67 °FOvercast.9 mph73%30.01 "Hg10 mi
6:54 PM67 °FOvercast.10 mph76%30.00 "Hg10 mi
5:54 PM68 °FOvercast.10 mph78%29.98 "Hg10 mi
4:54 PM69 °FMostly cloudy.13 mph76%29.98 "Hg10 mi
3:54 PM70 °FOvercast.15 mph79%29.99 "Hg10 mi
2:54 PM70 °FMostly cloudy.10 mph81%30.01 "Hg10 mi
1:54 PM71 °FOvercast.10 mph84%30.00 "Hg7 mi
12:54 PM74 °FCloudy.16 mph79%29.97 "Hg8 mi
11:54 AM77 °FPartly sunny.10 mph71%29.95 "Hg10 mi
10:54 AM78 °FSunny.13 mph66%29.94 "Hg10 mi
9:54 AM75 °FPartly sunny.5 mph71%29.93 "Hg10 mi
8:54 AM75 °FPassing clouds.10 mph76%29.95 "Hg9 mi
7:54 AM74 °FScattered clouds.9 mph82%29.96 "Hg7 mi
6:54 AM73 °FPassing clouds.7 mph84%29.95 "Hg6 mi
5:54 AM75 °FPassing clouds.6 mph76%29.95 "Hg8 mi
4:54 AM75 °FOvercast.6 mph79%29.96 "Hg8 mi
3:54 AM73 °FClear.No wind88%29.94 "Hg7 mi
1:54 AM74 °FClear.6 mph85%29.98 "Hg8 mi
12:54 AM75 °FClear.5 mph82%29.99 "Hg9 mi
Weather by CustomWeather, © 2014

See weather overviewHow to use our weather pages